Wetterdaten: Sonntag, 10.04.2016
Datum Zeit Auen-Temp. Temp gefhlt Luftfeuchte Luftdruck Regen Wind Richtung Richtung Sonnenschein Taupunkt Windben
10.04.2016 00:00 0,0 C 3,2 C 90 % 1008,9 hPa 0,0 mm 0,0 km/h (0 Bft) SO 135 0 min -1,4 C 0,0 km/h (0 Bft)
10.04.2016 00:05 0,0 C 3,2 C 90 % 1008,9 hPa 0,0 mm 0,0 km/h (0 Bft) S 180 0 min -1,4 C 0,0 km/h (0 Bft)
10.04.2016 00:10 0,0 C 3,2 C 90 % 1009,0 hPa 0,0 mm 0,0 km/h (0 Bft) SO 135 0 min -1,4 C 0,0 km/h (0 Bft)
10.04.2016 00:15 0,0 C 3,3 C 90 % 1009,0 hPa 0,0 mm 0,0 km/h (0 Bft) S 180 0 min -1,4 C 0,0 km/h (0 Bft)
10.04.2016 00:20 0,0 C 3,3 C 90 % 1009,0 hPa 0,0 mm 0,0 km/h (0 Bft) S-SO 157 0 min -1,4 C 0,0 km/h (0 Bft)
10.04.2016 00:25 0,0 C 3,3 C 90 % 1009,0 hPa 0,0 mm 0,3 km/h (0 Bft) S-SW 202 0 min -1,4 C 0,0 km/h (0 Bft)
10.04.2016 00:30 0,0 C 3,3 C 90 % 1009,1 hPa 0,0 mm 0,3 km/h (0 Bft) S-SO 157 0 min -1,4 C 0,0 km/h (0 Bft)
10.04.2016 00:35 0,0 C 3,3 C 90 % 1009,1 hPa 0,0 mm 0,0 km/h (0 Bft) SO 135 0 min -1,4 C 0,0 km/h (0 Bft)
10.04.2016 00:40 0,0 C 3,3 C 90 % 1009,1 hPa 0,0 mm 0,0 km/h (0 Bft) N-NO 22 0 min -1,4 C 0,0 km/h (0 Bft)
10.04.2016 00:45 0,0 C 3,3 C 90 % 1009,1 hPa 0,0 mm 0,0 km/h (0 Bft) S 180 0 min -1,4 C 0,0 km/h (0 Bft)
10.04.2016 00:50 0,0 C 3,4 C 90 % 1009,1 hPa 0,0 mm 0,3 km/h (0 Bft) S 180 0 min -1,4 C 3,3 km/h (1 Bft)
10.04.2016 00:55 0,0 C 3,4 C 90 % 1009,1 hPa 0,0 mm 0,3 km/h (0 Bft) S 180 0 min -1,4 C 0,0 km/h (0 Bft)
10.04.2016 01:00 0,0 C 3,5 C 90 % 1009,1 hPa 0,0 mm 0,3 km/h (0 Bft) S-SO 157 0 min -1,4 C 0,0 km/h (0 Bft)
10.04.2016 01:03 0,0 C 3,6 C 90 % 1009,1 hPa 0,0 mm 0,0 km/h (0 Bft) N-NW 337 0 min -1,4 C 0,0 km/h (0 Bft)
10.04.2016 01:04 0,0 C 3,6 C 90 % 1009,1 hPa 0,0 mm 0,0 km/h (0 Bft) N-NW 337 0 min -1,4 C 0,0 km/h (0 Bft)
10.04.2016 01:10 0,0 C 3,6 C 90 % 1009,1 hPa 0,0 mm 0,0 km/h (0 Bft) NW 315 0 min -1,4 C 0,0 km/h (0 Bft)
10.04.2016 01:15 0,0 C 3,6 C 90 % 1009,1 hPa 0,0 mm 0,0 km/h (0 Bft) S 180 0 min -1,4 C 0,0 km/h (0 Bft)
10.04.2016 01:20 0,0 C 3,6 C 90 % 1009,1 hPa 0,0 mm 0,0 km/h (0 Bft) SW 225 0 min -1,4 C 0,0 km/h (0 Bft)
10.04.2016 01:25 0,0 C 3,7 C 91 % 1009,1 hPa 0,0 mm 1,2 km/h (1 Bft) SW 225 0 min -1,3 C 7,2 km/h (2 Bft)
10.04.2016 01:30 0,0 C 3,7 C 91 % 1009,2 hPa 0,0 mm 2,4 km/h (1 Bft) SW 225 0 min -1,3 C 5,7 km/h (1 Bft)
10.04.2016 01:35 0,0 C 3,7 C 91 % 1009,2 hPa 0,0 mm 2,4 km/h (1 Bft) S-SW 202 0 min -1,3 C 3,0 km/h (1 Bft)
10.04.2016 01:40 0,0 C 3,7 C 90 % 1009,2 hPa 0,0 mm 1,5 km/h (1 Bft) S-SW 202 0 min -1,4 C 0,0 km/h (0 Bft)
10.04.2016 01:45 0,0 C 3,7 C 90 % 1009,2 hPa 0,0 mm 0,3 km/h (0 Bft) S-SO 157 0 min -1,4 C 0,0 km/h (0 Bft)
10.04.2016 01:50 0,0 C 3,6 C 90 % 1009,2 hPa 0,0 mm 0,6 km/h (0 Bft) W-SW 247 0 min -1,4 C 3,9 km/h (1 Bft)
10.04.2016 01:55 0,0 C 3,6 C 90 % 1009,2 hPa 0,0 mm 0,3 km/h (0 Bft) W-SW 247 0 min -1,4 C 0,0 km/h (0 Bft)
10.04.2016 02:00 0,0 C 3,6 C 90 % 1009,2 hPa 0,0 mm 0,6 km/h (0 Bft) SW 225 0 min -1,4 C 4,2 km/h (1 Bft)
10.04.2016 02:05 0,0 C 3,6 C 90 % 1009,2 hPa 0,0 mm 2,1 km/h (1 Bft) SW 225 0 min -1,4 C 3,6 km/h (1 Bft)
10.04.2016 02:10 0,0 C 3,6 C 90 % 1009,3 hPa 0,0 mm 3,0 km/h (1 Bft) SW 225 0 min -1,4 C 5,4 km/h (1 Bft)
10.04.2016 02:15 0,0 C 3,6 C 90 % 1009,3 hPa 0,0 mm 2,4 km/h (1 Bft) W-SW 247 0 min -1,4 C 0,0 km/h (0 Bft)
10.04.2016 02:20 0,0 C 3,6 C 90 % 1009,3 hPa 0,0 mm 2,4 km/h (1 Bft) S-SW 202 0 min -1,4 C 0,0 km/h (0 Bft)
10.04.2016 02:25 0,0 C 3,6 C 90 % 1009,3 hPa 0,0 mm 1,2 km/h (1 Bft) SW 225 0 min -1,4 C 6,3 km/h (2 Bft)
10.04.2016 02:30 0,0 C 3,6 C 90 % 1009,4 hPa 0,0 mm 2,1 km/h (1 Bft) W 270 0 min -1,4 C 0,0 km/h (0 Bft)
10.04.2016 02:35 0,0 C 3,6 C 90 % 1009,4 hPa 0,0 mm 4,2 km/h (1 Bft) SW 225 0 min -1,4 C 4,8 km/h (1 Bft)
10.04.2016 02:40 0,0 C 3,7 C 90 % 1009,4 hPa 0,0 mm 4,8 km/h (1 Bft) W-SW 247 0 min -1,4 C 5,4 km/h (1 Bft)
10.04.2016 02:45 0,0 C 3,6 C 90 % 1009,4 hPa 0,0 mm 3,9 km/h (1 Bft) S 180 0 min -1,4 C 8,0 km/h (2 Bft)
10.04.2016 02:50 0,0 C 3,6 C 90 % 1009,4 hPa 0,0 mm 1,8 km/h (1 Bft) SW 225 0 min -1,4 C 0,0 km/h (0 Bft)
10.04.2016 02:55 0,0 C 3,6 C 90 % 1009,4 hPa 0,0 mm 0,9 km/h (0 Bft) SW 225 0 min -1,4 C 0,0 km/h (0 Bft)
10.04.2016 03:00 0,0 C 3,6 C 90 % 1009,4 hPa 0,0 mm 0,9 km/h (0 Bft) S 180 0 min -1,4 C 3,6 km/h (1 Bft)
10.04.2016 03:05 0,0 C 3,6 C 90 % 1009,4 hPa 0,0 mm 3,0 km/h (1 Bft) S 180 0 min -1,4 C 9,5 km/h (2 Bft)
10.04.2016 03:10 0,0 C 3,6 C 90 % 1009,6 hPa 0,0 mm 3,9 km/h (1 Bft) S-SO 157 0 min -1,4 C 0,0 km/h (0 Bft)
10.04.2016 03:15 0,0 C 3,5 C 90 % 1009,6 hPa 0,0 mm 1,5 km/h (1 Bft) S-SO 157 0 min -1,4 C 0,0 km/h (0 Bft)
10.04.2016 03:20 0,0 C 3,5 C 90 % 1009,6 hPa 0,0 mm 0,3 km/h (0 Bft) S 180 0 min -1,4 C 0,0 km/h (0 Bft)
10.04.2016 03:25 0,0 C 3,4 C 90 % 1009,6 hPa 0,0 mm 0,3 km/h (0 Bft) SW 225 0 min -1,4 C 0,0 km/h (0 Bft)
10.04.2016 03:30 0,0 C 3,4 C 90 % 1009,4 hPa 0,0 mm 0,0 km/h (0 Bft) W-SW 247 0 min -1,4 C 0,0 km/h (0 Bft)
10.04.2016 03:35 0,0 C 3,4 C 90 % 1009,4 hPa 0,0 mm 0,3 km/h (0 Bft) O 90 0 min -1,4 C 0,0 km/h (0 Bft)
10.04.2016 03:40 0,0 C 3,5 C 90 % 1009,4 hPa 0,0 mm 0,6 km/h (0 Bft) S-SW 202 0 min -1,4 C 4,8 km/h (1 Bft)
10.04.2016 03:45 0,0 C 3,6 C 90 % 1009,4 hPa 0,0 mm 2,4 km/h (1 Bft) SW 225 0 min -1,4 C 5,1 km/h (1 Bft)
10.04.2016 03:50 0,0 C 3,6 C 90 % 1009,6 hPa 0,0 mm 3,0 km/h (1 Bft) W-SW 247 0 min -1,4 C 6,9 km/h (2 Bft)
10.04.2016 03:55 0,0 C 3,6 C 90 % 1009,6 hPa 0,0 mm 2,7 km/h (1 Bft) SW 225 0 min -1,4 C 4,2 km/h (1 Bft)
10.04.2016 04:00 0,0 C 3,6 C 90 % 1009,6 hPa 0,0 mm 2,4 km/h (1 Bft) S-SO 157 0 min -1,4 C 0,0 km/h (0 Bft)
10.04.2016 04:03 0,0 C 3,6 C 90 % 1009,6 hPa 0,0 mm 0,9 km/h (0 Bft) S-SO 157 0 min -1,4 C 0,0 km/h (0 Bft)
10.04.2016 04:05 0,0 C 3,6 C 90 % 1009,6 hPa 0,0 mm 0,9 km/h (0 Bft) S-SO 157 0 min -1,4 C 0,0 km/h (0 Bft)
10.04.2016 04:10 0,0 C 3,6 C 90 % 1009,8 hPa 0,0 mm 0,3 km/h (0 Bft) O-SO 112 0 min -1,4 C 0,0 km/h (0 Bft)
10.04.2016 04:15 0,0 C 3,5 C 90 % 1009,8 hPa 0,0 mm 0,0 km/h (0 Bft) S-SO 157 0 min -1,4 C 0,0 km/h (0 Bft)
10.04.2016 04:20 0,0 C 3,5 C 90 % 1009,8 hPa 0,0 mm 0,0 km/h (0 Bft) S 180 0 min -1,4 C 0,0 km/h (0 Bft)
10.04.2016 04:25 0,0 C 3,5 C 90 % 1009,8 hPa 0,0 mm 0,0 km/h (0 Bft) S 180 0 min -1,4 C 0,0 km/h (0 Bft)
10.04.2016 04:30 0,0 C 3,5 C 90 % 1009,8 hPa 0,0 mm 0,0 km/h (0 Bft) O-SO 112 0 min -1,4 C 0,0 km/h (0 Bft)
10.04.2016 04:35 0,0 C 3,5 C 90 % 1009,8 hPa 0,0 mm 0,0 km/h (0 Bft) S-SO 157 0 min -1,4 C 0,0 km/h (0 Bft)
10.04.2016 04:40 0,0 C 3,4 C 90 % 1009,8 hPa 0,0 mm 0,0 km/h (0 Bft) O 90 0 min -1,4 C 0,0 km/h (0 Bft)
10.04.2016 04:45 0,0 C 3,4 C 90 % 1009,8 hPa 0,0 mm 0,0 km/h (0 Bft) NO 45 0 min -1,4 C 0,0 km/h (0 Bft)
10.04.2016 04:50 0,0 C 3,3 C 90 % 1009,9 hPa 0,0 mm 0,0 km/h (0 Bft) O-SO 112 0 min -1,4 C 0,0 km/h (0 Bft)
10.04.2016 04:55 0,0 C 3,4 C 91 % 1009,9 hPa 0,0 mm 1,2 km/h (1 Bft) S-SW 202 0 min -1,3 C 6,0 km/h (2 Bft)
10.04.2016 05:00 0,0 C 3,4 C 91 % 1009,9 hPa 0,0 mm 3,0 km/h (1 Bft) W 270 0 min -1,3 C 3,9 km/h (1 Bft)
10.04.2016 05:05 0,0 C 3,4 C 91 % 1009,9 hPa 0,0 mm 3,0 km/h (1 Bft) O-SO 112 0 min -1,3 C 0,0 km/h (0 Bft)
10.04.2016 05:10 0,0 C 3,4 C 91 % 1009,9 hPa 0,0 mm 1,2 km/h (1 Bft) W-NW 292 0 min -1,3 C 0,0 km/h (0 Bft)
10.04.2016 05:15 0,0 C 3,4 C 91 % 1009,9 hPa 0,0 mm 0,6 km/h (0 Bft) S-SW 202 0 min -1,3 C 3,0 km/h (1 Bft)
10.04.2016 05:20 0,0 C 3,3 C 91 % 1009,9 hPa 0,0 mm 0,3 km/h (0 Bft) SO 135 0 min -1,3 C 0,0 km/h (0 Bft)
10.04.2016 05:25 0,0 C 3,4 C 91 % 1009,9 hPa 0,0 mm 0,3 km/h (0 Bft) O-SO 112 0 min -1,3 C 3,6 km/h (1 Bft)
10.04.2016 05:30 0,0 C 3,4 C 91 % 1009,9 hPa 0,0 mm 0,3 km/h (0 Bft) N 360 0 min -1,3 C 0,0 km/h (0 Bft)
10.04.2016 05:35 0,0 C 3,3 C 91 % 1009,9 hPa 0,0 mm 0,6 km/h (0 Bft) O-NO 67 0 min -1,3 C 3,0 km/h (1 Bft)
10.04.2016 05:40 0,0 C 3,3 C 91 % 1009,9 hPa 0,0 mm 0,6 km/h (0 Bft) O-SO 112 0 min -1,3 C 0,0 km/h (0 Bft)
10.04.2016 05:45 0,0 C 3,4 C 91 % 1009,9 hPa 0,0 mm 0,6 km/h (0 Bft) O-SO 112 0 min -1,3 C 0,0 km/h (0 Bft)
10.04.2016 05:50 0,0 C 3,4 C 91 % 1010,0 hPa 0,0 mm 0,0 km/h (0 Bft) N-NO 22 0 min -1,3 C 0,0 km/h (0 Bft)
10.04.2016 05:55 0,0 C 3,4 C 91 % 1010,0 hPa 0,0 mm 0,0 km/h (0 Bft) O-SO 112 0 min -1,3 C 0,0 km/h (0 Bft)
10.04.2016 06:00 0,0 C 3,4 C 91 % 1010,0 hPa 0,0 mm 0,0 km/h (0 Bft) O-SO 112 0 min -1,3 C 0,0 km/h (0 Bft)
10.04.2016 06:05 0,0 C 3,3 C 91 % 1010,0 hPa 0,0 mm 0,0 km/h (0 Bft) O-SO 112 0 min -1,3 C 0,0 km/h (0 Bft)
10.04.2016 06:10 0,0 C 3,4 C 91 % 1010,0 hPa 0,0 mm 0,0 km/h (0 Bft) O-SO 112 0 min -1,3 C 0,0 km/h (0 Bft)
10.04.2016 06:15 0,0 C 3,3 C 91 % 1010,0 hPa 0,0 mm 0,0 km/h (0 Bft) O-SO 112 0 min -1,3 C 0,0 km/h (0 Bft)
10.04.2016 06:20 0,0 C 3,3 C 91 % 1010,0 hPa 0,0 mm 0,0 km/h (0 Bft) O 90 0 min -1,3 C 0,0 km/h (0 Bft)
10.04.2016 06:25 0,0 C 3,3 C 91 % 1010,0 hPa 0,0 mm 0,0 km/h (0 Bft) O-NO 67 0 min -1,3 C 0,0 km/h (0 Bft)
10.04.2016 06:30 0,0 C 3,2 C 91 % 1010,2 hPa 0,0 mm 0,0 km/h (0 Bft) N-NO 22 0 min -1,3 C 0,0 km/h (0 Bft)
10.04.2016 06:35 0,0 C 3,2 C 91 % 1010,2 hPa 0,0 mm 0,0 km/h (0 Bft) S-SO 157 0 min -1,3 C 0,0 km/h (0 Bft)
10.04.2016 06:40 0,0 C 3,2 C 91 % 1010,2 hPa 0,0 mm 0,0 km/h (0 Bft) SO 135 0 min -1,3 C 0,0 km/h (0 Bft)
10.04.2016 06:45 0,0 C 3,3 C 91 % 1010,2 hPa 0,0 mm 0,0 km/h (0 Bft) O-NO 67 0 min -1,3 C 0,0 km/h (0 Bft)
10.04.2016 06:50 0,0 C 3,2 C 91 % 1010,3 hPa 0,0 mm 0,0 km/h (0 Bft) NW 315 0 min -1,3 C 0,0 km/h (0 Bft)
10.04.2016 06:55 0,0 C 3,1 C 91 % 1010,3 hPa 0,0 mm 0,0 km/h (0 Bft) N-NO 22 0 min -1,3 C 0,0 km/h (0 Bft)
10.04.2016 07:00 0,0 C 3,1 C 91 % 1010,3 hPa 0,0 mm 0,0 km/h (0 Bft) N-NO 22 0 min -1,3 C 0,0 km/h (0 Bft)
10.04.2016 07:03 0,0 C 3,2 C 91 % 1010,3 hPa 0,0 mm 0,0 km/h (0 Bft) N-NO 22 0 min -1,3 C 0,0 km/h (0 Bft)
10.04.2016 07:06 0,0 C 3,2 C 91 % 1010,3 hPa 0,0 mm 0,0 km/h (0 Bft) N-NO 22 0 min -1,3 C 0,0 km/h (0 Bft)
10.04.2016 07:10 0,0 C 3,1 C 91 % 1010,4 hPa 0,0 mm 0,0 km/h (0 Bft) O-NO 67 0 min -1,3 C 0,0 km/h (0 Bft)
10.04.2016 07:15 0,0 C 3,1 C 91 % 1010,4 hPa 0,0 mm 0,0 km/h (0 Bft) N-NO 22 0 min -1,3 C 0,0 km/h (0 Bft)
10.04.2016 07:20 0,0 C 3,2 C 91 % 1010,4 hPa 0,0 mm 0,0 km/h (0 Bft) NW 315 0 min -1,3 C 0,0 km/h (0 Bft)
10.04.2016 07:25 0,0 C 3,2 C 91 % 1010,4 hPa 0,0 mm 0,0 km/h (0 Bft) O-NO 67 0 min -1,3 C 0,0 km/h (0 Bft)
10.04.2016 07:30 0,0 C 3,3 C 91 % 1010,6 hPa 0,0 mm 0,0 km/h (0 Bft) O-SO 112 0 min -1,3 C 0,0 km/h (0 Bft)
10.04.2016 07:35 0,0 C 3,3 C 91 % 1010,6 hPa 0,0 mm 0,0 km/h (0 Bft) N-NO 22 0 min -1,3 C 0,0 km/h (0 Bft)
10.04.2016 07:40 0,0 C 3,4 C 91 % 1010,6 hPa 0,0 mm 0,0 km/h (0 Bft) O-NO 67 0 min -1,3 C 0,0 km/h (0 Bft)
10.04.2016 07:45 0,0 C 3,4 C 91 % 1010,6 hPa 0,0 mm 0,0 km/h (0 Bft) NO 45 0 min -1,3 C 0,0 km/h (0 Bft)
10.04.2016 07:50 0,0 C 3,5 C 91 % 1010,7 hPa 0,0 mm 0,0 km/h (0 Bft) N-NO 22 0 min -1,3 C 0,0 km/h (0 Bft)
10.04.2016 07:55 0,0 C 3,6 C 91 % 1010,7 hPa 0,0 mm 0,0 km/h (0 Bft) O-NO 67 0 min -1,3 C 0,0 km/h (0 Bft)
10.04.2016 08:00 0,0 C 3,6 C 91 % 1010,7 hPa 0,0 mm 0,3 km/h (0 Bft) W-NW 292 0 min -1,3 C 3,0 km/h (1 Bft)
10.04.2016 08:05 0,0 C 3,7 C 91 % 1010,7 hPa 0,0 mm 0,3 km/h (0 Bft) W-SW 247 0 min -1,3 C 0,0 km/h (0 Bft)
10.04.2016 08:10 0,0 C 3,8 C 91 % 1010,8 hPa 0,0 mm 0,0 km/h (0 Bft) W-NW 292 0 min -1,3 C 0,0 km/h (0 Bft)
10.04.2016 08:15 0,0 C 3,8 C 91 % 1010,8 hPa 0,0 mm 0,0 km/h (0 Bft) N-NO 22 0 min -1,3 C 0,0 km/h (0 Bft)
10.04.2016 08:20 0,0 C 3,9 C 91 % 1010,8 hPa 0,0 mm 0,0 km/h (0 Bft) O-NO 67 0 min -1,3 C 0,0 km/h (0 Bft)
10.04.2016 08:25 0,0 C 4,0 C 91 % 1010,8 hPa 0,0 mm 0,0 km/h (0 Bft) O-NO 67 0 min -1,3 C 0,0 km/h (0 Bft)
10.04.2016 08:30 0,0 C 4,1 C 91 % 1010,7 hPa 0,0 mm 0,0 km/h (0 Bft) N-NO 22 0 min -1,3 C 0,0 km/h (0 Bft)
10.04.2016 08:35 0,0 C 4,3 C 91 % 1010,7 hPa 0,0 mm 0,0 km/h (0 Bft) O-NO 67 0 min -1,3 C 0,0 km/h (0 Bft)
10.04.2016 08:40 0,0 C 4,3 C 91 % 1010,7 hPa 0,0 mm 0,0 km/h (0 Bft) NO 45 0 min -1,3 C 0,0 km/h (0 Bft)
10.04.2016 08:45 0,0 C 4,5 C 91 % 1010,7 hPa 0,0 mm 0,0 km/h (0 Bft) O-NO 67 0 min -1,3 C 0,0 km/h (0 Bft)
10.04.2016 08:50 0,0 C 4,7 C 91 % 1010,9 hPa 0,0 mm 0,0 km/h (0 Bft) NW 315 0 min -1,3 C 0,0 km/h (0 Bft)
10.04.2016 08:55 0,0 C 5,1 C 91 % 1010,9 hPa 0,0 mm 0,6 km/h (0 Bft) W 270 0 min -1,3 C 4,8 km/h (1 Bft)
10.04.2016 09:00 0,0 C 5,3 C 91 % 1010,9 hPa 0,0 mm 2,4 km/h (1 Bft) W-SW 247 0 min -1,3 C 6,9 km/h (2 Bft)
10.04.2016 09:05 0,0 C 5,6 C 91 % 1010,9 hPa 0,0 mm 2,4 km/h (1 Bft) O-NO 67 0 min -1,3 C 0,0 km/h (0 Bft)
10.04.2016 09:10 0,0 C 5,8 C 90 % 1010,8 hPa 0,0 mm 0,6 km/h (0 Bft) O-NO 67 0 min -1,4 C 0,0 km/h (0 Bft)
10.04.2016 09:15 0,0 C 6,1 C 90 % 1010,8 hPa 0,0 mm 0,3 km/h (0 Bft) NO 45 0 min -1,4 C 0,0 km/h (0 Bft)
10.04.2016 09:20 0,0 C 6,3 C 90 % 1010,8 hPa 0,0 mm 0,6 km/h (0 Bft) O-NO 67 0 min -1,4 C 0,0 km/h (0 Bft)
10.04.2016 09:25 0,0 C 6,8 C 89 % 1010,8 hPa 0,0 mm 0,6 km/h (0 Bft) O-NO 67 0 min -1,6 C 0,0 km/h (0 Bft)
10.04.2016 09:30 0,0 C 7,2 C 89 % 1011,2 hPa 0,0 mm 0,3 km/h (0 Bft) O-NO 67 0 min -1,6 C 0,0 km/h (0 Bft)
10.04.2016 09:35 0,0 C 7,4 C 88 % 1011,2 hPa 0,0 mm 0,9 km/h (0 Bft) NO 45 0 min -1,7 C 3,3 km/h (1 Bft)
10.04.2016 09:40 0,0 C 7,5 C 88 % 1011,2 hPa 0,0 mm 2,4 km/h (1 Bft) NO 45 0 min -1,7 C 5,4 km/h (1 Bft)
10.04.2016 09:45 0,0 C 7,6 C 87 % 1011,2 hPa 0,0 mm 3,6 km/h (1 Bft) NO 45 0 min -1,9 C 4,5 km/h (1 Bft)
10.04.2016 09:50 0,0 C 7,8 C 87 % 1011,2 hPa 0,0 mm 2,7 km/h (1 Bft) O-NO 67 0 min -1,9 C 3,3 km/h (1 Bft)
10.04.2016 09:55 0,0 C 8,3 C 86 % 1011,2 hPa 0,0 mm 1,2 km/h (1 Bft) NO 45 0 min -2,1 C 4,2 km/h (1 Bft)
10.04.2016 10:00 0,0 C 8,5 C 85 % 1011,2 hPa 0,0 mm 1,8 km/h (1 Bft) O-NO 67 0 min -2,2 C 3,6 km/h (1 Bft)
10.04.2016 10:05 0,0 C 8,8 C 84 % 1011,2 hPa 0,0 mm 3,3 km/h (1 Bft) NO 45 0 min -2,4 C 6,9 km/h (2 Bft)
10.04.2016 10:07 0,0 C 8,8 C 84 % 1011,2 hPa 0,0 mm 3,3 km/h (1 Bft) NO 45 0 min -2,4 C 6,9 km/h (2 Bft)
10.04.2016 10:10 0,0 C 8,9 C 83 % 1011,3 hPa 0,0 mm 4,5 km/h (1 Bft) N-NO 22 0 min -2,5 C 7,2 km/h (2 Bft)
10.04.2016 10:15 0,0 C 9,2 C 81 % 1011,3 hPa 0,0 mm 5,1 km/h (1 Bft) N-NO 22 0 min -2,9 C 5,7 km/h (1 Bft)
10.04.2016 10:19 0,0 C 9,5 C 79 % 1011,3 hPa 0,0 mm 4,5 km/h (1 Bft) NO 45 0 min -3,2 C 4,5 km/h (1 Bft)
10.04.2016 10:25 0,0 C 10,4 C 78 % 1011,3 hPa 0,0 mm 3,6 km/h (1 Bft) N-NO 22 0 min -3,4 C 7,5 km/h (2 Bft)
10.04.2016 10:30 0,0 C 10,8 C 78 % 1011,4 hPa 0,0 mm 4,2 km/h (1 Bft) N-NO 22 5 min -3,4 C 5,7 km/h (1 Bft)
10.04.2016 10:35 0,0 C 11,8 C 76 % 1011,4 hPa 0,0 mm 5,7 km/h (1 Bft) NO 45 5 min -3,7 C 9,8 km/h (2 Bft)
10.04.2016 10:40 0,0 C 13,0 C 74 % 1011,4 hPa 0,0 mm 5,4 km/h (1 Bft) N-NO 22 5 min -4,1 C 9,8 km/h (2 Bft)
10.04.2016 10:45 0,0 C 13,6 C 71 % 1011,4 hPa 0,0 mm 7,5 km/h (2 Bft) NW 315 5 min -4,6 C 16,4 km/h (3 Bft)
10.04.2016 10:50 0,0 C 13,5 C 68 % 1011,9 hPa 0,0 mm 9,8 km/h (2 Bft) NO 45 5 min -5,2 C 8,9 km/h (2 Bft)
10.04.2016 10:55 0,0 C 14,5 C 69 % 1011,9 hPa 0,0 mm 7,5 km/h (2 Bft) N-NW 337 5 min -5,0 C 17,3 km/h (3 Bft)
10.04.2016 11:00 0,0 C 15,0 C 60 % 1011,9 hPa 0,0 mm 7,7 km/h (2 Bft) NO 45 5 min -6,8 C 11,9 km/h (2 Bft)
10.04.2016 11:05 9,4 C 15,1 C 76 % 1011,9 hPa 0,0 mm 10,1 km/h (2 Bft) O-NO 67 5 min 5,4 C 18,2 km/h (3 Bft)
10.04.2016 11:10 9,6 C 15,3 C 76 % 1012,5 hPa 0,0 mm 8,3 km/h (2 Bft) NO 45 5 min 5,6 C 8,3 km/h (2 Bft)
10.04.2016 11:15 10,0 C 16,0 C 74 % 1012,5 hPa 0,0 mm 7,5 km/h (2 Bft) NO 45 5 min 5,6 C 11,3 km/h (2 Bft)
10.04.2016 11:20 10,1 C 16,1 C 73 % 1012,5 hPa 0,0 mm 8,0 km/h (2 Bft) N-NO 22 5 min 5,5 C 10,1 km/h (2 Bft)
10.04.2016 11:25 10,0 C 15,7 C 71 % 1012,5 hPa 0,0 mm 9,8 km/h (2 Bft) O-NO 67 5 min 5,0 C 14,9 km/h (3 Bft)
10.04.2016 11:30 10,1 C 15,7 C 71 % 1013,2 hPa 0,0 mm 10,1 km/h (2 Bft) N-NO 22 5 min 5,1 C 9,2 km/h (2 Bft)
10.04.2016 11:35 10,4 C 16,7 C 69 % 1013,2 hPa 0,0 mm 9,5 km/h (2 Bft) N-NO 22 5 min 5,0 C 9,2 km/h (2 Bft)
10.04.2016 11:40 10,3 C 16,8 C 69 % 1013,2 hPa 0,0 mm 9,8 km/h (2 Bft) O-NO 67 5 min 4,9 C 14,6 km/h (3 Bft)
10.04.2016 11:45 10,7 C 16,3 C 67 % 1013,2 hPa 0,0 mm 11,9 km/h (2 Bft) O-SO 112 5 min 4,8 C 21,5 km/h (4 Bft)
10.04.2016 11:50 11,0 C 17,4 C 66 % 1013,6 hPa 0,0 mm 10,4 km/h (2 Bft) W 270 5 min 4,9 C 0,0 km/h (0 Bft)
10.04.2016 11:55 11,3 C 18,8 C 66 % 1013,6 hPa 0,0 mm 7,7 km/h (2 Bft) O-SO 112 5 min 5,2 C 6,9 km/h (2 Bft)
10.04.2016 12:00 11,3 C 18,2 C 65 % 1013,6 hPa 0,0 mm 10,4 km/h (2 Bft) NO 45 5 min 5,0 C 22,4 km/h (4 Bft)
10.04.2016 12:05 11,0 C 17,4 C 65 % 1013,6 hPa 0,0 mm 12,2 km/h (2 Bft) O-NO 67 5 min 4,7 C 27,7 km/h (4 Bft)
10.04.2016 12:10 11,3 C 17,5 C 65 % 1013,9 hPa 0,0 mm 12,2 km/h (2 Bft) O-NO 67 5 min 5,0 C 20,3 km/h (4 Bft)
10.04.2016 12:15 10,7 C 16,3 C 64 % 1013,9 hPa 0,0 mm 11,0 km/h (2 Bft) O-SO 112 5 min 4,2 C 16,1 km/h (3 Bft)
10.04.2016 12:20 10,4 C 15,3 C 64 % 1013,9 hPa 0,0 mm 10,7 km/h (2 Bft) O-NO 67 5 min 3,9 C 17,0 km/h (3 Bft)
10.04.2016 12:25 10,2 C 14,2 C 64 % 1013,9 hPa 0,0 mm 9,8 km/h (2 Bft) NO 45 5 min 3,7 C 4,8 km/h (1 Bft)
10.04.2016 12:30 10,3 C 14,1 C 64 % 1013,6 hPa 0,0 mm 8,9 km/h (2 Bft) O-NO 67 5 min 3,8 C 9,2 km/h (2 Bft)
10.04.2016 12:35 10,1 C 13,5 C 62 % 1013,6 hPa 0,0 mm 9,5 km/h (2 Bft) O-NO 67 5 min 3,2 C 18,2 km/h (3 Bft)
10.04.2016 12:40 9,8 C 12,6 C 63 % 1013,6 hPa 0,0 mm 12,5 km/h (3 Bft) NO 45 0 min 3,1 C 11,6 km/h (2 Bft)
10.04.2016 12:45 10,1 C 13,3 C 63 % 1013,6 hPa 0,0 mm 11,3 km/h (2 Bft) N-NO 22 0 min 3,4 C 6,0 km/h (2 Bft)
10.04.2016 12:50 10,7 C 14,3 C 63 % 1012,9 hPa 0,0 mm 9,2 km/h (2 Bft) NO 45 0 min 3,9 C 16,1 km/h (3 Bft)
10.04.2016 12:55 10,7 C 14,8 C 61 % 1012,9 hPa 0,0 mm 8,9 km/h (2 Bft) O-NO 67 5 min 3,5 C 11,9 km/h (2 Bft)
10.04.2016 13:00 11,0 C 15,0 C 62 % 1012,9 hPa 0,0 mm 9,5 km/h (2 Bft) O-NO 67 5 min 4,0 C 14,3 km/h (3 Bft)
10.04.2016 13:05 11,1 C 15,5 C 61 % 1012,9 hPa 0,0 mm 8,6 km/h (2 Bft) O-NO 67 5 min 3,9 C 11,6 km/h (2 Bft)
10.04.2016 13:08 10,7 C 14,8 C 62 % 1012,6 hPa 0,0 mm 10,1 km/h (2 Bft) O-NO 67 3 min 3,7 C 10,1 km/h (2 Bft)
10.04.2016 13:10 10,7 C 14,8 C 62 % 1012,6 hPa 0,0 mm 10,1 km/h (2 Bft) O-NO 67 2 min 3,7 C 10,1 km/h (2 Bft)
10.04.2016 13:15 10,4 C 13,7 C 61 % 1012,6 hPa 0,0 mm 11,6 km/h (2 Bft) O 90 5 min 3,2 C 10,7 km/h (2 Bft)
10.04.2016 13:20 10,2 C 12,9 C 61 % 1012,6 hPa 0,0 mm 12,5 km/h (3 Bft) O-NO 67 0 min 3,0 C 15,2 km/h (3 Bft)
10.04.2016 13:25 10,5 C 12,9 C 62 % 1012,6 hPa 0,0 mm 13,4 km/h (3 Bft) O-NO 67 0 min 3,5 C 11,6 km/h (2 Bft)
10.04.2016 13:30 10,6 C 13,4 C 62 % 1012,1 hPa 0,0 mm 11,9 km/h (2 Bft) NO 45 0 min 3,6 C 22,1 km/h (4 Bft)
10.04.2016 13:35 11,0 C 13,8 C 61 % 1012,1 hPa 0,0 mm 11,9 km/h (2 Bft) O 90 0 min 3,8 C 11,6 km/h (2 Bft)
10.04.2016 13:40 11,1 C 15,3 C 60 % 1012,1 hPa 0,0 mm 12,8 km/h (3 Bft) O-NO 67 5 min 3,6 C 15,8 km/h (3 Bft)
10.04.2016 13:45 11,6 C 16,3 C 60 % 1012,1 hPa 0,0 mm 11,3 km/h (2 Bft) N-NO 22 0 min 4,1 C 16,4 km/h (3 Bft)
10.04.2016 13:50 11,9 C 16,9 C 59 % 1012,1 hPa 0,0 mm 12,5 km/h (3 Bft) O-NO 67 5 min 4,1 C 13,4 km/h (3 Bft)
10.04.2016 13:55 11,7 C 17,1 C 58 % 1012,1 hPa 0,0 mm 13,4 km/h (3 Bft) O-NO 67 5 min 3,7 C 29,2 km/h (5 Bft)
10.04.2016 14:00 11,3 C 16,1 C 58 % 1012,1 hPa 0,0 mm 13,1 km/h (3 Bft) NO 45 5 min 3,3 C 16,1 km/h (3 Bft)
10.04.2016 14:05 11,1 C 14,8 C 58 % 1012,1 hPa 0,0 mm 11,3 km/h (2 Bft) N-NO 22 5 min 3,2 C 12,5 km/h (3 Bft)
10.04.2016 14:10 11,4 C 15,0 C 58 % 1011,9 hPa 0,0 mm 9,8 km/h (2 Bft) O-NO 67 0 min 3,4 C 17,3 km/h (3 Bft)
10.04.2016 14:15 11,4 C 15,2 C 58 % 1011,9 hPa 0,0 mm 8,9 km/h (2 Bft) O-NO 67 5 min 3,4 C 11,9 km/h (2 Bft)
10.04.2016 14:20 11,3 C 14,8 C 58 % 1011,9 hPa 0,0 mm 11,3 km/h (2 Bft) O-NO 67 5 min 3,3 C 15,5 km/h (3 Bft)
10.04.2016 14:25 11,1 C 14,1 C 58 % 1011,9 hPa 0,0 mm 12,8 km/h (3 Bft) NO 45 5 min 3,2 C 16,4 km/h (3 Bft)
10.04.2016 14:30 11,1 C 13,8 C 58 % 1011,7 hPa 0,0 mm 12,5 km/h (3 Bft) S-SW 202 0 min 3,2 C 12,8 km/h (3 Bft)
10.04.2016 14:35 11,0 C 13,4 C 58 % 1011,7 hPa 0,0 mm 12,5 km/h (3 Bft) O-NO 67 0 min 3,1 C 15,5 km/h (3 Bft)
10.04.2016 14:40 11,1 C 13,3 C 59 % 1011,7 hPa 0,0 mm 12,5 km/h (3 Bft) NO 45 0 min 3,4 C 18,2 km/h (3 Bft)
10.04.2016 14:45 11,1 C 13,4 C 59 % 1011,7 hPa 0,0 mm 11,9 km/h (2 Bft) NO 45 0 min 3,4 C 8,3 km/h (2 Bft)
10.04.2016 14:50 11,1 C 13,4 C 59 % 1011,8 hPa 0,0 mm 11,3 km/h (2 Bft) O-NO 67 0 min 3,4 C 9,2 km/h (2 Bft)
10.04.2016 14:55 11,0 C 13,4 C 59 % 1011,8 hPa 0,0 mm 11,3 km/h (2 Bft) O-NO 67 0 min 3,3 C 17,9 km/h (3 Bft)
10.04.2016 15:00 11,1 C 13,4 C 59 % 1011,8 hPa 0,0 mm 10,7 km/h (2 Bft) NO 45 0 min 3,4 C 10,7 km/h (2 Bft)
10.04.2016 15:05 11,3 C 14,1 C 59 % 1011,8 hPa 0,0 mm 11,6 km/h (2 Bft) O-NO 67 0 min 3,6 C 27,7 km/h (4 Bft)
10.04.2016 15:10 11,7 C 14,8 C 58 % 1011,3 hPa 0,0 mm 12,2 km/h (2 Bft) O-NO 67 0 min 3,7 C 10,4 km/h (2 Bft)
10.04.2016 15:15 11,5 C 14,9 C 58 % 1011,3 hPa 0,0 mm 13,1 km/h (3 Bft) NO 45 5 min 3,5 C 18,2 km/h (3 Bft)
10.04.2016 15:20 11,4 C 14,2 C 58 % 1011,3 hPa 0,0 mm 12,2 km/h (2 Bft) N-NO 22 0 min 3,4 C 8,0 km/h (2 Bft)
10.04.2016 15:25 12,3 C 15,3 C 58 % 1011,3 hPa 0,0 mm 13,1 km/h (3 Bft) O-NO 67 0 min 4,3 C 20,9 km/h (4 Bft)
10.04.2016 15:30 12,2 C 15,8 C 57 % 1011,1 hPa 0,0 mm 14,3 km/h (3 Bft) O 90 5 min 3,9 C 17,9 km/h (3 Bft)
10.04.2016 15:35 12,1 C 15,2 C 57 % 1011,1 hPa 0,0 mm 15,2 km/h (3 Bft) S-SW 202 0 min 3,8 C 31,3 km/h (5 Bft)
10.04.2016 15:40 12,1 C 15,2 C 57 % 1011,1 hPa 0,0 mm 14,0 km/h (3 Bft) O 90 0 min 3,8 C 11,9 km/h (2 Bft)
10.04.2016 15:45 12,4 C 15,7 C 57 % 1011,1 hPa 0,0 mm 13,7 km/h (3 Bft) O-NO 67 0 min 4,1 C 18,2 km/h (3 Bft)
10.04.2016 15:50 12,2 C 15,8 C 57 % 1010,8 hPa 0,0 mm 14,0 km/h (3 Bft) NO 45 5 min 3,9 C 21,5 km/h (4 Bft)
10.04.2016 15:55 12,1 C 15,5 C 57 % 1010,8 hPa 0,0 mm 13,7 km/h (3 Bft) O-SO 112 5 min 3,8 C 10,7 km/h (2 Bft)
10.04.2016 16:00 12,3 C 15,8 C 58 % 1010,8 hPa 0,0 mm 11,3 km/h (2 Bft) O-NO 67 0 min 4,3 C 7,7 km/h (2 Bft)
10.04.2016 16:05 12,6 C 16,3 C 57 % 1010,8 hPa 0,0 mm 11,9 km/h (2 Bft) NO 45 5 min 4,3 C 20,0 km/h (4 Bft)
10.04.2016 16:08 12,4 C 16,1 C 57 % 1010,6 hPa 0,0 mm 13,7 km/h (3 Bft) O 90 3 min 4,1 C 10,4 km/h (2 Bft)
10.04.2016 16:09 12,4 C 16,1 C 57 % 1010,6 hPa 0,0 mm 13,7 km/h (3 Bft) O 90 1 min 4,1 C 10,4 km/h (2 Bft)
10.04.2016 16:10 12,4 C 16,1 C 57 % 1010,6 hPa 0,0 mm 13,7 km/h (3 Bft) O 90 1 min 4,1 C 10,4 km/h (2 Bft)
10.04.2016 16:15 12,3 C 16,0 C 57 % 1010,6 hPa 0,0 mm 14,3 km/h (3 Bft) NO 45 5 min 4,0 C 31,6 km/h (5 Bft)
10.04.2016 16:20 12,4 C 16,0 C 57 % 1010,6 hPa 0,0 mm 12,8 km/h (3 Bft) NO 45 5 min 4,1 C 23,5 km/h (4 Bft)
10.04.2016 16:25 12,1 C 15,5 C 57 % 1010,6 hPa 0,0 mm 14,3 km/h (3 Bft) NO 45 5 min 3,8 C 17,6 km/h (3 Bft)
10.04.2016 16:30 11,8 C 14,7 C 57 % 1010,6 hPa 0,0 mm 15,5 km/h (3 Bft) N-NO 22 5 min 3,6 C 14,9 km/h (3 Bft)
10.04.2016 16:35 11,9 C 14,2 C 58 % 1010,6 hPa 0,0 mm 14,0 km/h (3 Bft) O-NO 67 0 min 3,9 C 17,9 km/h (3 Bft)
10.04.2016 16:40 12,1 C 15,0 C 58 % 1010,6 hPa 0,0 mm 13,4 km/h (3 Bft) NO 45 0 min 4,1 C 20,0 km/h (4 Bft)
10.04.2016 16:45 11,9 C 14,8 C 58 % 1010,6 hPa 0,0 mm 14,6 km/h (3 Bft) O-NO 67 5 min 3,9 C 18,2 km/h (3 Bft)
10.04.2016 16:50 11,6 C 13,9 C 58 % 1010,6 hPa 0,0 mm 14,6 km/h (3 Bft) O-NO 67 0 min 3,6 C 22,4 km/h (4 Bft)
10.04.2016 16:55 11,3 C 12,3 C 58 % 1010,6 hPa 0,0 mm 13,1 km/h (3 Bft) O-NO 67 0 min 3,3 C 14,0 km/h (3 Bft)
10.04.2016 17:00 11,4 C 12,6 C 59 % 1010,6 hPa 0,0 mm 11,9 km/h (2 Bft) O-NO 67 0 min 3,7 C 17,9 km/h (3 Bft)
10.04.2016 17:05 11,5 C 12,9 C 59 % 1010,6 hPa 0,0 mm 11,9 km/h (2 Bft) O-SO 112 0 min 3,8 C 8,0 km/h (2 Bft)
10.04.2016 17:10 11,4 C 12,6 C 59 % 1010,4 hPa 0,0 mm 11,3 km/h (2 Bft) O-NO 67 0 min 3,7 C 20,3 km/h (4 Bft)
10.04.2016 17:15 11,5 C 13,2 C 59 % 1010,4 hPa 0,0 mm 10,7 km/h (2 Bft) O-NO 67 0 min 3,8 C 25,3 km/h (4 Bft)
10.04.2016 17:20 11,6 C 13,5 C 59 % 1010,4 hPa 0,0 mm 12,2 km/h (2 Bft) NO 45 0 min 3,9 C 14,3 km/h (3 Bft)
10.04.2016 17:25 11,7 C 13,7 C 59 % 1010,4 hPa 0,0 mm 12,5 km/h (3 Bft) N 360 0 min 4,0 C 11,6 km/h (2 Bft)
10.04.2016 17:30 11,8 C 13,6 C 59 % 1010,3 hPa 0,0 mm 13,1 km/h (3 Bft) NO 45 0 min 4,1 C 20,3 km/h (4 Bft)
10.04.2016 17:35 11,5 C 12,9 C 59 % 1010,3 hPa 0,0 mm 13,7 km/h (3 Bft) O-NO 67 0 min 3,8 C 7,5 km/h (2 Bft)
10.04.2016 17:40 11,3 C 12,2 C 59 % 1010,3 hPa 0,0 mm 13,7 km/h (3 Bft) O-NO 67 0 min 3,6 C 11,9 km/h (2 Bft)
10.04.2016 17:45 11,4 C 12,6 C 59 % 1010,3 hPa 0,0 mm 11,0 km/h (2 Bft) NO 45 0 min 3,7 C 14,0 km/h (3 Bft)
10.04.2016 17:50 11,4 C 12,8 C 59 % 1010,2 hPa 0,0 mm 11,6 km/h (2 Bft) NO 45 0 min 3,7 C 22,4 km/h (4 Bft)
10.04.2016 17:55 11,4 C 12,8 C 59 % 1010,2 hPa 0,0 mm 14,3 km/h (3 Bft) NO 45 0 min 3,7 C 16,1 km/h (3 Bft)
10.04.2016 18:00 11,5 C 12,6 C 59 % 1010,2 hPa 0,0 mm 14,3 km/h (3 Bft) NO 45 0 min 3,8 C 16,4 km/h (3 Bft)
10.04.2016 18:05 11,5 C 12,6 C 59 % 1010,2 hPa 0,0 mm 11,6 km/h (2 Bft) NO 45 0 min 3,8 C 20,6 km/h (4 Bft)
10.04.2016 18:10 11,4 C 12,3 C 59 % 1010,4 hPa 0,0 mm 12,2 km/h (2 Bft) NO 45 0 min 3,7 C 15,5 km/h (3 Bft)
10.04.2016 18:15 11,3 C 12,2 C 59 % 1010,4 hPa 0,0 mm 10,1 km/h (2 Bft) O-SO 112 0 min 3,6 C 9,2 km/h (2 Bft)
10.04.2016 18:20 11,1 C 11,9 C 59 % 1010,4 hPa 0,0 mm 8,6 km/h (2 Bft) O 90 0 min 3,4 C 5,1 km/h (1 Bft)
10.04.2016 18:25 10,7 C 11,3 C 60 % 1010,4 hPa 0,0 mm 8,3 km/h (2 Bft) N-NO 22 0 min 3,3 C 10,7 km/h (2 Bft)
10.04.2016 18:30 10,6 C 11,0 C 60 % 1010,5 hPa 0,0 mm 8,3 km/h (2 Bft) NO 45 0 min 3,2 C 8,3 km/h (2 Bft)
10.04.2016 18:35 10,8 C 10,8 C 60 % 1010,5 hPa 0,0 mm 12,8 km/h (3 Bft) NO 45 0 min 3,4 C 16,7 km/h (3 Bft)
10.04.2016 18:40 10,7 C 11,0 C 60 % 1010,5 hPa 0,0 mm 14,3 km/h (3 Bft) O-NO 67 0 min 3,3 C 25,3 km/h (4 Bft)
10.04.2016 18:45 10,7 C 10,7 C 59 % 1010,5 hPa 0,0 mm 14,6 km/h (3 Bft) NO 45 0 min 3,0 C 14,9 km/h (3 Bft)
10.04.2016 18:50 10,7 C 10,6 C 59 % 1010,4 hPa 0,0 mm 14,9 km/h (3 Bft) O-NO 67 0 min 3,0 C 16,1 km/h (3 Bft)
10.04.2016 18:55 10,7 C 10,5 C 60 % 1010,4 hPa 0,0 mm 12,5 km/h (3 Bft) O-NO 67 0 min 3,3 C 11,9 km/h (2 Bft)
10.04.2016 19:00 10,7 C 10,6 C 60 % 1010,4 hPa 0,0 mm 11,3 km/h (2 Bft) NO 45 0 min 3,3 C 9,2 km/h (2 Bft)
10.04.2016 19:05 10,6 C 10,6 C 60 % 1010,4 hPa 0,0 mm 8,9 km/h (2 Bft) O-NO 67 0 min 3,2 C 8,6 km/h (2 Bft)
10.04.2016 19:08 10,5 C 10,7 C 61 % 1010,5 hPa 0,0 mm 7,7 km/h (2 Bft) N-NO 22 0 min 3,3 C 5,1 km/h (1 Bft)
10.04.2016 19:13 10,2 C 10,8 C 62 % 1010,5 hPa 0,0 mm 7,2 km/h (2 Bft) NO 45 0 min 3,3 C 20,0 km/h (4 Bft)
10.04.2016 19:14 10,2 C 10,8 C 62 % 1010,5 hPa 0,0 mm 7,2 km/h (2 Bft) NO 45 0 min 3,3 C 20,0 km/h (4 Bft)
10.04.2016 19:15 10,2 C 10,8 C 62 % 1010,5 hPa 0,0 mm 7,2 km/h (2 Bft) NO 45 0 min 3,3 C 20,0 km/h (4 Bft)
10.04.2016 19:20 10,1 C 10,6 C 62 % 1010,5 hPa 0,0 mm 7,2 km/h (2 Bft) N-NO 22 0 min 3,2 C 4,8 km/h (1 Bft)
10.04.2016 19:25 9,7 C 10,3 C 63 % 1010,5 hPa 0,0 mm 7,2 km/h (2 Bft) O-SO 112 0 min 3,0 C 14,0 km/h (3 Bft)
10.04.2016 19:30 9,7 C 10,2 C 63 % 1010,6 hPa 0,0 mm 5,7 km/h (1 Bft) O-NO 67 0 min 3,0 C 3,0 km/h (1 Bft)
10.04.2016 19:35 9,3 C 10,1 C 63 % 1010,6 hPa 0,0 mm 3,0 km/h (1 Bft) NO 45 0 min 2,6 C 0,0 km/h (0 Bft)
10.04.2016 19:40 9,1 C 10,0 C 64 % 1010,6 hPa 0,0 mm 1,2 km/h (1 Bft) NO 45 0 min 2,7 C 0,0 km/h (0 Bft)
10.04.2016 19:45 8,7 C 9,5 C 64 % 1010,6 hPa 0,0 mm 1,2 km/h (1 Bft) SO 135 0 min 2,3 C 0,0 km/h (0 Bft)
10.04.2016 19:50 8,5 C 9,1 C 65 % 1010,4 hPa 0,0 mm 0,6 km/h (0 Bft) SO 135 0 min 2,3 C 3,0 km/h (1 Bft)
10.04.2016 19:55 8,3 C 8,3 C 66 % 1010,4 hPa 0,0 mm 0,3 km/h (0 Bft) SO 135 0 min 2,3 C 4,5 km/h (1 Bft)
10.04.2016 20:00 8,1 C 8,0 C 67 % 1010,4 hPa 0,0 mm 0,9 km/h (0 Bft) SO 135 0 min 2,3 C 3,6 km/h (1 Bft)
10.04.2016 20:05 7,9 C 7,7 C 68 % 1010,4 hPa 0,0 mm 1,8 km/h (1 Bft) SO 135 0 min 2,4 C 3,3 km/h (1 Bft)
10.04.2016 20:10 7,6 C 7,4 C 68 % 1010,6 hPa 0,0 mm 2,1 km/h (1 Bft) S-SO 157 0 min 2,1 C 5,1 km/h (1 Bft)
10.04.2016 20:15 7,4 C 7,1 C 69 % 1010,6 hPa 0,0 mm 2,7 km/h (1 Bft) SO 135 0 min 2,1 C 3,3 km/h (1 Bft)
10.04.2016 20:20 7,3 C 7,0 C 69 % 1010,6 hPa 0,0 mm 2,7 km/h (1 Bft) SO 135 0 min 2,0 C 3,9 km/h (1 Bft)
10.04.2016 20:25 7,0 C 6,7 C 70 % 1010,6 hPa 0,0 mm 1,5 km/h (1 Bft) S-SO 157 0 min 1,9 C 4,5 km/h (1 Bft)
10.04.2016 20:30 7,0 C 6,7 C 70 % 1010,4 hPa 0,0 mm 1,5 km/h (1 Bft) SO 135 0 min 1,9 C 3,0 km/h (1 Bft)
10.04.2016 20:35 6,7 C 6,4 C 70 % 1010,4 hPa 0,0 mm 1,5 km/h (1 Bft) S-SO 157 0 min 1,6 C 0,0 km/h (0 Bft)
10.04.2016 20:40 6,7 C 6,4 C 71 % 1010,4 hPa 0,0 mm 2,4 km/h (1 Bft) S 180 0 min 1,8 C 3,3 km/h (1 Bft)
10.04.2016 20:45 6,5 C 6,2 C 71 % 1010,4 hPa 0,0 mm 1,2 km/h (1 Bft) S 180 0 min 1,6 C 0,0 km/h (0 Bft)
10.04.2016 20:50 6,4 C 6,1 C 72 % 1010,6 hPa 0,0 mm 0,6 km/h (0 Bft) SW 225 0 min 1,7 C 6,0 km/h (2 Bft)
10.04.2016 20:55 6,3 C 6,0 C 72 % 1010,6 hPa 0,0 mm 0,9 km/h (0 Bft) SO 135 0 min 1,6 C 0,0 km/h (0 Bft)
10.04.2016 21:00 5,8 C 5,6 C 73 % 1010,6 hPa 0,0 mm 0,6 km/h (0 Bft) S 180 0 min 1,3 C 0,0 km/h (0 Bft)
10.04.2016 21:05 5,4 C 5,1 C 75 % 1010,6 hPa 0,0 mm 0,0 km/h (0 Bft) SO 135 0 min 1,3 C 0,0 km/h (0 Bft)
10.04.2016 21:10 5,2 C 4,9 C 75 % 1010,6 hPa 0,0 mm 0,0 km/h (0 Bft) NO 45 0 min 1,1 C 0,0 km/h (0 Bft)
10.04.2016 21:15 4,9 C 4,5 C 76 % 1010,6 hPa 0,0 mm 0,0 km/h (0 Bft) O 90 0 min 1,0 C 0,0 km/h (0 Bft)
10.04.2016 21:20 5,2 C 4,8 C 74 % 1010,6 hPa 0,0 mm 0,0 km/h (0 Bft) SO 135 0 min 1,0 C 0,0 km/h (0 Bft)
10.04.2016 21:25 4,7 C 4,3 C 76 % 1010,6 hPa 0,0 mm 0,0 km/h (0 Bft) O-SO 112 0 min 0,8 C 0,0 km/h (0 Bft)
10.04.2016 21:30 4,5 C 4,1 C 76 % 1010,4 hPa 0,0 mm 0,0 km/h (0 Bft) W 270 0 min 0,6 C 0,0 km/h (0 Bft)
10.04.2016 21:35 4,1 C 3,7 C 75 % 1010,4 hPa 0,0 mm 0,0 km/h (0 Bft) O-NO 67 0 min 0,1 C 0,0 km/h (0 Bft)
10.04.2016 21:40 4,2 C 3,8 C 74 % 1010,4 hPa 0,0 mm 0,0 km/h (0 Bft) S-SO 157 0 min -0,0 C 0,0 km/h (0 Bft)
10.04.2016 21:45 3,9 C 3,5 C 77 % 1010,4 hPa 0,0 mm 0,0 km/h (0 Bft) W 270 0 min 0,2 C 0,0 km/h (0 Bft)
10.04.2016 21:50 3,6 C 3,3 C 77 % 1010,6 hPa 0,0 mm 0,0 km/h (0 Bft) NO 45 0 min -0,0 C 0,0 km/h (0 Bft)
10.04.2016 21:55 3,5 C 3,1 C 77 % 1010,6 hPa 0,0 mm 0,0 km/h (0 Bft) S 180 0 min -0,1 C 0,0 km/h (0 Bft)
10.04.2016 22:00 3,6 C 3,3 C 76 % 1010,6 hPa 0,0 mm 0,0 km/h (0 Bft) NW 315 0 min -0,2 C 0,0 km/h (0 Bft)
10.04.2016 22:05 3,4 C 3,0 C 78 % 1010,6 hPa 0,0 mm 0,0 km/h (0 Bft) N 360 0 min -0,1 C 0,0 km/h (0 Bft)
10.04.2016 22:10 3,1 C 2,7 C 78 % 1010,6 hPa 0,0 mm 0,0 km/h (0 Bft) S-SO 157 0 min -0,4 C 0,0 km/h (0 Bft)
10.04.2016 22:13 3,4 C 2,9 C 79 % 1010,6 hPa 0,0 mm 0,0 km/h (0 Bft) O-NO 67 0 min 0,1 C 0,0 km/h (0 Bft)
10.04.2016 22:15 3,4 C 2,9 C 79 % 1010,6 hPa 0,0 mm 0,0 km/h (0 Bft) O-NO 67 0 min 0,1 C 0,0 km/h (0 Bft)
10.04.2016 22:20 3,1 C 2,7 C 79 % 1010,6 hPa 0,0 mm 0,0 km/h (0 Bft) NO 45 0 min -0,2 C 0,0 km/h (0 Bft)
10.04.2016 22:25 3,4 C 2,8 C 80 % 1010,6 hPa 0,0 mm 0,0 km/h (0 Bft) NO 45 0 min 0,3 C 0,0 km/h (0 Bft)
10.04.2016 22:30 3,1 C 2,6 C 80 % 1010,3 hPa 0,0 mm 0,0 km/h (0 Bft) O-NO 67 0 min -0,0 C 0,0 km/h (0 Bft)
10.04.2016 22:35 2,5 C 2,2 C 80 % 1010,3 hPa 0,0 mm 0,0 km/h (0 Bft) NO 45 0 min -0,6 C 0,0 km/h (0 Bft)
10.04.2016 22:40 2,3 C 1,9 C 80 % 1010,3 hPa 0,0 mm 0,0 km/h (0 Bft) N-NO 22 0 min -0,8 C 0,0 km/h (0 Bft)
10.04.2016 22:45 2,3 C 1,9 C 80 % 1010,3 hPa 0,0 mm 0,0 km/h (0 Bft) O-SO 112 0 min -0,8 C 0,0 km/h (0 Bft)
10.04.2016 22:50 2,4 C 1,9 C 81 % 1010,4 hPa 0,0 mm 0,0 km/h (0 Bft) NO 45 0 min -0,5 C 0,0 km/h (0 Bft)
10.04.2016 22:55 2,4 C 1,9 C 81 % 1010,4 hPa 0,0 mm 0,0 km/h (0 Bft) SO 135 0 min -0,5 C 0,0 km/h (0 Bft)
10.04.2016 23:00 2,6 C 2,1 C 79 % 1010,4 hPa 0,0 mm 0,0 km/h (0 Bft) SO 135 0 min -0,7 C 0,0 km/h (0 Bft)
10.04.2016 23:05 2,5 C 2,4 C 79 % 1010,4 hPa 0,0 mm 0,3 km/h (0 Bft) N-NO 22 0 min -0,8 C 0,0 km/h (0 Bft)
10.04.2016 23:10 2,3 C 2,0 C 84 % 1010,3 hPa 0,0 mm 0,3 km/h (0 Bft) NO 45 0 min -0,1 C 0,0 km/h (0 Bft)
10.04.2016 23:15 2,0 C 1,7 C 83 % 1010,3 hPa 0,0 mm 0,0 km/h (0 Bft) NW 315 0 min -0,6 C 0,0 km/h (0 Bft)
10.04.2016 23:20 2,2 C 1,8 C 84 % 1010,3 hPa 0,0 mm 0,0 km/h (0 Bft) O-SO 112 0 min -0,2 C 0,0 km/h (0 Bft)
10.04.2016 23:25 2,0 C 1,7 C 84 % 1010,3 hPa 0,0 mm 0,0 km/h (0 Bft) NO 45 0 min -0,4 C 0,0 km/h (0 Bft)
10.04.2016 23:30 1,8 C 1,4 C 84 % 1010,4 hPa 0,0 mm 0,0 km/h (0 Bft) O-SO 112 0 min -0,6 C 0,0 km/h (0 Bft)
10.04.2016 23:35 1,7 C 1,3 C 84 % 1010,4 hPa 0,0 mm 0,0 km/h (0 Bft) NO 45 0 min -0,7 C 0,0 km/h (0 Bft)
10.04.2016 23:40 1,5 C 1,2 C 84 % 1010,4 hPa 0,0 mm 0,0 km/h (0 Bft) SO 135 0 min -0,9 C 0,0 km/h (0 Bft)
10.04.2016 23:45 1,4 C 1,1 C 84 % 1010,4 hPa 0,0 mm 0,0 km/h (0 Bft) N-NO 22 0 min -1,0 C 0,0 km/h (0 Bft)
10.04.2016 23:50 1,3 C 1,0 C 84 % 1010,4 hPa 0,0 mm 0,0 km/h (0 Bft) N-NO 22 0 min -1,1 C 0,0 km/h (0 Bft)
10.04.2016 23:55 1,5 C 1,0 C 84 % 1010,4 hPa 0,0 mm 0,0 km/h (0 Bft) O-NO 67 0 min -0,9 C 0,0 km/h (0 Bft)
_ Min-Zeit 11:00 23:55 16:30 00:05 - 23:55 - - - 11:00 23:55
Minimum _ 0,0 C 1,0 C 57 % 1008,9 hPa - 0,0 km/h (0 Bft) - - - -6,8 C 0,0 km/h (0 Bft)
_ Max-Zeit 16:05 11:55 09:05 12:25 23:55 16:30 - - 16:45 11:15 16:15
Maximum _ 12,6 C 18,8 C 91 % 1013,9 hPa 0,0 mm 15,5 km/h
N-NO (3 Bft)
- - 5 min 5,6 C 31,6 km/h
NO (5 Bft)
Durchschnitt _ 4,8 C 7,9 C 77 % 1010,7 hPa #0,0 mm 4,7 km/h (1 Bft) O-NO - #4:10 h 0,7 C 6,3 km/h (2 Bft)